Crane Lake, MN

5:15 PM CST on February 23, 2017 (GMT -0600)
Crane Lake

Weather History for KCDD - August, 2012

Change the Weather History Date:

Wednesday, August 22, 2012

  Actual Average Record
Temperature  
Mean Temperature 67 °F -  
Max Temperature 86 °F 73 °F 87 °F (2010)
Min Temperature 48 °F 52 °F 5 °F (1997)
Cooling Degree Days 2    
Growing Degree Days 17 (Base 50)    
Moisture  
Dew Point 57 °F    
Average Humidity 70    
Maximum Humidity 94    
Minimum Humidity 37    
Precipitation  
Precipitation 0.00 in - - ()
Sea Level Pressure  
Sea Level Pressure 29.92 in    
Wind  
Wind Speed 2 mph (SSW)    
Max Wind Speed 5 mph    
Max Gust Speed -    
Visibility 10 miles    
Events      
Averages and records for this station are not official NWS values.
T = Trace of Precipitation, MM = Missing Value Source: NWS Daily Summary

Daily Weather History Graph

Daily Weather History Graph

Search for Another Location

Airport or City:

Trip Planner

Search our weather history database for the weather conditions in past years. The results will help you decide how hot, cold, wet, or windy it might be!

Date:

Astronomy

Aug. 22, 2012 Rise Set
Actual Time 6:14 AM CDT 8:09 PM CDT
Civil Twilight 5:40 AM CDT 8:43 PM CDT
Nautical Twilight 4:59 AM CDT 9:24 PM CDT
Astronomical Twilight 4:13 AM CDT 10:09 PM CDT
Moon 12:27 PM CDT (8/22) 10:16 PM CDT (8/22)
Length of Visible Light 15h 02m
Length of Day
13h 55m
Waxing Crescent, 29% of the Moon is Illuminated
Aug 22
Waxing Crescent
Aug 24
First Quarter
Aug 31
Full
Sep 8
Last Quarter
Sep 15
New

Hourly Weather History & Observations

Time (CDT) Temp. Heat Index Dew Point Humidity Pressure Visibility Wind Dir Wind Speed Gust Speed Precip Events Conditions
12:12 AM 60.8 °F - 53.6 °F 77% 29.90 in 10.0 mi South 3.5 mph - N/A   Clear
12:32 AM 60.8 °F - 55.4 °F 82% 29.90 in 10.0 mi South 4.6 mph - N/A   Clear
12:52 AM 62.6 °F - 55.4 °F 77% 29.91 in 10.0 mi South 3.5 mph - N/A   Clear
1:13 AM 62.6 °F - 55.4 °F 77% 29.91 in 10.0 mi South 4.6 mph - N/A   Clear
1:32 AM 62.6 °F - 55.4 °F 77% 29.91 in 10.0 mi South 4.6 mph - N/A   Clear
1:52 AM 60.8 °F - 55.4 °F 82% 29.91 in 10.0 mi South 3.5 mph - N/A   Clear
2:12 AM 60.8 °F - 55.4 °F 82% 29.91 in 10.0 mi South 3.5 mph - N/A   Clear
2:32 AM 60.8 °F - 55.4 °F 82% 29.91 in 10.0 mi South 3.5 mph - N/A   Clear
2:52 AM 60.8 °F - 55.4 °F 82% 29.91 in 10.0 mi South 3.5 mph - N/A   Clear
3:13 AM 60.8 °F - 53.6 °F 77% 29.91 in 10.0 mi South 3.5 mph - N/A   Clear
3:33 AM 59.0 °F - 53.6 °F 82% 29.91 in 10.0 mi Calm Calm - N/A   Clear
3:52 AM 55.4 °F - 50.0 °F 82% 29.92 in 10.0 mi Calm Calm - N/A   Clear
4:12 AM 53.6 °F - 48.2 °F 82% 29.93 in 10.0 mi Calm Calm - N/A   Clear
4:33 AM 51.8 °F - 48.2 °F 88% 29.93 in 10.0 mi Calm Calm - N/A   Clear
4:52 AM 51.8 °F - 50.0 °F 94% 29.93 in 10.0 mi Calm Calm - N/A   Clear
5:12 AM 51.8 °F - 48.2 °F 88% 29.93 in 10.0 mi Calm Calm - N/A   Clear
5:33 AM 50.0 °F - 48.2 °F 94% 29.93 in 10.0 mi Calm Calm - N/A   Clear
5:53 AM 50.0 °F - 46.4 °F 87% 29.93 in 10.0 mi Calm Calm - N/A   Clear
6:13 AM 48.2 °F - 46.4 °F 93% 29.93 in 10.0 mi Calm Calm - N/A   Clear
6:33 AM 48.2 °F - 46.4 °F 93% 29.93 in 10.0 mi Calm Calm - N/A   Clear
7:12 AM 50.0 °F - 48.2 °F 94% 29.94 in 10.0 mi Calm Calm - N/A   Clear
7:32 AM 51.8 °F - 48.2 °F 88% 29.94 in 10.0 mi Calm Calm - N/A   Clear
7:52 AM 53.6 °F - 51.8 °F 94% 29.95 in 10.0 mi Calm Calm - N/A   Clear
8:12 AM 57.2 °F - 55.4 °F 94% 29.94 in 10.0 mi Calm Calm - N/A   Clear
8:32 AM 60.8 °F - 57.2 °F 88% 29.94 in 10.0 mi Calm Calm - N/A   Clear
8:52 AM 62.6 °F - 60.8 °F 94% 29.94 in 10.0 mi Calm Calm - N/A   Clear
9:13 AM 66.2 °F - 59.0 °F 78% 29.94 in 10.0 mi WSW 4.6 mph - N/A   Clear
9:32 AM 69.8 °F - 60.8 °F 73% 29.94 in 10.0 mi SSW 3.5 mph - N/A   Clear
9:52 AM 71.6 °F - 59.0 °F 64% 29.94 in 10.0 mi South 4.6 mph - N/A   Clear
10:12 AM 71.6 °F - 60.8 °F 69% 29.94 in 10.0 mi Calm Calm - N/A   Clear
10:33 AM 73.4 °F - 60.8 °F 65% 29.94 in 10.0 mi Calm Calm - N/A   Clear
11:13 AM 73.4 °F - 60.8 °F 65% 29.95 in 10.0 mi South 3.5 mph - N/A   Clear
11:32 AM 75.2 °F - 60.8 °F 61% 29.94 in 10.0 mi South 3.5 mph - N/A   Clear
11:53 AM 77.0 °F - 60.8 °F 57% 29.94 in 10.0 mi Calm Calm - N/A   Clear
12:12 PM 78.8 °F - 60.8 °F 54% 29.94 in 10.0 mi SW 4.6 mph - N/A   Clear
12:32 PM 78.8 °F - 60.8 °F 54% 29.93 in 10.0 mi Calm Calm - N/A   Clear
12:52 PM 80.6 °F 81.5 °F 60.8 °F 51% 29.93 in 10.0 mi SW 4.6 mph - N/A   Clear
1:12 PM 80.6 °F 80.8 °F 57.2 °F 45% 29.93 in 10.0 mi SW 3.5 mph - N/A   Clear
1:32 PM 82.4 °F 82.9 °F 60.8 °F 48% 29.92 in 10.0 mi Calm Calm - N/A   Clear
1:53 PM 82.4 °F 82.5 °F 59.0 °F 45% 29.92 in 10.0 mi WSW 3.5 mph - N/A   Clear
2:12 PM 82.4 °F 82.9 °F 60.8 °F 48% 29.92 in 10.0 mi West 3.5 mph - N/A   Clear
2:33 PM 84.2 °F 85.0 °F 62.6 °F 48% 29.92 in 10.0 mi Calm Calm - N/A   Clear
2:52 PM 84.2 °F 85.0 °F 62.6 °F 48% 29.91 in 10.0 mi Calm Calm - N/A   Clear
3:13 PM 84.2 °F 85.0 °F 62.6 °F 48% 29.91 in 10.0 mi Calm Calm - N/A   Clear
3:32 PM 86.0 °F 86.6 °F 62.6 °F 45% 29.90 in 10.0 mi Calm Calm - N/A   Clear
3:52 PM 86.0 °F 86.1 °F 60.8 °F 43% 29.90 in 10.0 mi WSW 3.5 mph - N/A   Clear
4:12 PM 84.2 °F 83.8 °F 59.0 °F 42% 29.91 in 10.0 mi Calm Calm - N/A   Clear
4:32 PM 84.2 °F 83.8 °F 59.0 °F 42% 29.90 in 10.0 mi Calm Calm - N/A   Clear
5:12 PM 84.2 °F 83.5 °F 57.2 °F 40% 29.90 in 10.0 mi Calm Calm - N/A   Clear
5:32 PM 86.0 °F 84.9 °F 57.2 °F 37% 29.90 in 10.0 mi Calm Calm - N/A   Clear
5:52 PM 86.0 °F 85.4 °F 59.0 °F 40% 29.90 in 10.0 mi Calm Calm - N/A   Clear
6:12 PM 84.2 °F 83.8 °F 59.0 °F 42% 29.90 in 10.0 mi Calm Calm - N/A   Clear
6:32 PM 84.2 °F 84.4 °F 60.8 °F 45% 29.90 in 10.0 mi Calm Calm - N/A   Clear
6:52 PM 82.4 °F 83.4 °F 62.6 °F 51% 29.90 in 10.0 mi Calm Calm - N/A   Clear
7:12 PM 75.2 °F - 60.8 °F 61% 29.90 in 10.0 mi Calm Calm - N/A   Clear
7:32 PM 71.6 °F - 60.8 °F 69% 29.91 in 10.0 mi Calm Calm - N/A   Clear
7:52 PM 69.8 °F - 60.8 °F 73% 29.91 in 10.0 mi Calm Calm - N/A   Clear
8:12 PM 68.0 °F - 59.0 °F 73% 29.91 in 10.0 mi Calm Calm - N/A   Clear
8:32 PM 66.2 °F - 60.8 °F 83% 29.91 in 10.0 mi Calm Calm - N/A   Clear
8:52 PM 64.4 °F - 57.2 °F 77% 29.92 in 10.0 mi Calm Calm - N/A   Clear
9:12 PM 62.6 °F - 57.2 °F 82% 29.92 in 10.0 mi Calm Calm - N/A   Clear
9:32 PM 62.6 °F - 57.2 °F 82% 29.92 in 10.0 mi Calm Calm - N/A   Clear
9:52 PM 60.8 °F - 57.2 °F 88% 29.92 in 10.0 mi Calm Calm - N/A   Clear
10:12 PM 60.8 °F - 55.4 °F 82% 29.92 in 10.0 mi Calm Calm - N/A   Clear
10:32 PM 59.0 °F - 55.4 °F 88% 29.93 in 10.0 mi Calm Calm - N/A   Clear
11:52 PM 55.4 °F - 53.6 °F 94% 29.92 in 10.0 mi Calm Calm - N/A   Clear